FW4559 Weather Reports


time (UTC)temp
C
wind
direction
speed
KPH
gust
KPH
rain 1hr
cm
rain 24hr
cm
rain mn
cm
humidity
%
barometer
mb
20260504003549 11 248 1.6 8.0 0.00 0.00 0.00 37 1017.3
20260504003053 11 212 0.0 6.4 0.00 0.00 0.00 37 1017.3
20260504002549 11 252 3.2 9.7 0.00 0.00 0.00 37 1017.3
20260504002049 11 236 1.6 9.7 0.00 0.00 0.00 37 1017.2
20260504001618 11 288 3.2 11.3 0.00 0.00 0.00 36 1017.2
20260504001050 11 245 3.2 11.3 0.00 0.00 0.00 35 1017.1
20260504000549 12 235 3.2 9.7 0.00 0.00 0.00 35 1017.2
20260504000053 12 218 1.6 9.7 0.00 0.00 0.00 34 1017.1
20260503235548 12 334 1.6 9.7 0.00 0.00 0.00 33 1017.1
20260503235049 12 283 1.6 11.3 0.00 0.00 0.00 32 1017.0
20260503234548 12 295 4.8 11.3 0.00 0.00 0.00 32 1017.0
20260503234047 13 290 1.6 16.1 0.00 0.00 0.00 32 1017.0
20260503233546 13 261 1.6 14.5 0.00 0.00 0.00 32 1017.0
20260503233047 13 232 4.8 16.1 0.00 0.00 0.00 31 1017.0
20260503232547 13 258 3.2 16.1 0.00 0.00 0.00 31 1016.9
20260503232046 13 300 1.6 17.7 0.00 0.00 0.00 31 1016.9
20260503231546 13 278 1.6 17.7 0.00 0.00 0.00 30 1016.9
20260503231047 13 350 3.2 17.7 0.00 0.00 0.00 30 1016.8
20260503230546 13 1 3.2 17.7 0.00 0.00 0.00 29 1017.0
20260503230107 13 252 8.0 17.7 0.00 0.00 0.00 29 1016.9
20260503225545 13 314 8.0 17.7 0.00 0.00 0.00 28 1017.0
20260503225045 13 25 4.8 12.9 0.00 0.00 0.00 27 1017.0
20260503224545 13 303 6.4 20.9 0.00 0.00 0.00 28 1017.0
20260503224045 13 330 6.4 20.9 0.00 0.00 0.00 28 1017.1
20260503223544 14 328 8.0 16.1 0.00 0.00 0.00 27 1017.0
20260503223046 14 308 3.2 16.1 0.00 0.00 0.00 27 1017.2
20260503222544 14 226 4.8 16.1 0.00 0.00 0.00 26 1017.1
20260503222044 13 19 4.8 22.5 0.00 0.00 0.00 26 1017.1
20260503221544 14 121 11.3 22.5 0.00 0.00 0.00 26 1017.3
20260503221044 14 284 6.4 22.5 0.00 0.00 0.00 25 1017.3
20260503220544 14 356 6.4 22.5 0.00 0.00 0.00 25 1017.2
20260503220048 14 19 11.3 22.5 0.00 0.00 0.00 25 1017.2
20260503215543 15 304 4.8 17.7 0.00 0.00 0.00 25 1017.2
20260503215042 14 247 4.8 20.9 0.00 0.00 0.00 24 1017.2
20260503214544 14 1 11.3 22.5 0.00 0.00 0.00 23 1017.3
20260503214043 14 4 4.8 22.5 0.00 0.00 0.00 24 1017.3
20260503213544 14 148 8.0 19.3 0.00 0.00 0.00 24 1017.3
20260503213044 14 104 6.4 22.5 0.00 0.00 0.00 24 1017.4
20260503212543 14 233 6.4 22.5 0.00 0.00 0.00 24 1017.4
20260503212042 14 65 3.2 22.5 0.00 0.00 0.00 24 1017.5
20260503211542 14 307 6.4 25.7 0.00 0.00 0.00 24 1017.5
20260503211041 15 300 11.3 25.7 0.00 0.00 0.00 23 1017.5
20260503210541 15 54 6.4 19.3 0.00 0.00 0.00 22 1017.6
20260503210041 15 132 6.4 20.9 0.00 0.00 0.00 22 1017.7
20260503205542 15 260 6.4 20.9 0.00 0.00 0.00 23 1017.8
20260503205041 14 219 4.8 19.3 0.00 0.00 0.00 23 1017.8
20260503204540 14 335 3.2 16.1 0.00 0.00 0.00 24 1017.9
20260503204040 15 248 8.0 17.7 0.00 0.00 0.00 22 1017.9
20260503203539 14 257 9.7 17.7 0.00 0.00 0.00 20 1018.1
20260503203057 15 286 8.0 17.7 0.00 0.00 0.00 22 1018.0
20260503202539 15 316 3.2 17.7 0.00 0.00 0.00 25 1018.0
20260503202041 15 281 4.8 17.7 0.00 0.00 0.00 25 1018.0
20260503201539 15 258 3.2 20.9 0.00 0.00 0.00 24 1018.1
20260503201038 15 286 6.4 20.9 0.00 0.00 0.00 26 1018.1
20260503200542 15 243 4.8 24.1 0.00 0.00 0.00 28 1018.0
20260503200038 15 273 11.3 24.1 0.00 0.00 0.00 25 1018.0
20260503195537 15 298 4.8 16.1 0.00 0.00 0.00 27 1018.2
20260503195038 15 108 0.0 9.7 0.00 0.00 0.00 28 1018.1
20260503194543 15 129 3.2 9.7 0.00 0.00 0.00 26 1018.2
20260503194038 15 224 4.8 16.1 0.00 0.00 0.00 27 1018.2
20260503193538 15 237 4.8 16.1 0.00 0.00 0.00 27 1018.2
20260503193039 15 212 1.6 9.7 0.00 0.00 0.00 27 1018.3
20260503192535 15 267 1.6 9.7 0.00 0.00 0.00 28 1018.3
20260503192036 15 149 1.6 14.5 0.00 0.00 0.00 28 1018.5
20260503191540 14 276 4.8 14.5 0.00 0.00 0.00 27 1018.6
20260503191033 14 226 6.4 14.5 0.00 0.00 0.00 30 1018.7
20260503190534 13 215 3.2 11.3 0.00 0.00 0.00 27 1018.6
20260503190039 13 353 3.2 19.3 0.00 0.00 0.00 26 1018.7
20260503185531 13 125 3.2 19.3 0.00 0.00 0.00 29 1018.8
20260503185034 13 323 6.4 19.3 0.00 0.00 0.00 28 1018.7
20260503184533 13 326 8.0 17.7 0.00 0.00 0.00 27 1018.6
20260503184032 13 205 3.2 17.7 0.00 0.00 0.00 28 1018.7
20260503183535 13 203 1.6 11.3 0.00 0.00 0.00 29 1018.8
20260503183032 12 86 6.4 16.1 0.00 0.00 0.00 27 1019.0
20260503182531 13 338 9.7 16.1 0.00 0.00 0.00 26 1019.1
20260503182031 12 283 3.2 16.1 0.00 0.00 0.00 26 1019.1
20260503181531 12 305 6.4 16.1 0.00 0.00 0.00 25 1019.2
20260503181030 13 344 4.8 12.9 0.00 0.00 0.00 26 1019.1
20260503180531 13 335 3.2 11.3 0.00 0.00 0.00 24 1019.2
20260503180034 13 330 6.4 9.7 0.00 0.00 0.00 25 1019.2
20260503175529 13 203 0.0 9.7 0.00 0.00 0.00 27 1019.1
20260503175027 12 192 1.6 19.3 0.00 0.00 0.00 27 1019.3
20260503174526 12 224 6.4 19.3 0.00 0.00 0.00 27 1019.5
20260503174030 12 203 3.2 17.7 0.00 0.00 0.00 26 1019.5
20260503173526 11 319 1.6 14.5 0.00 0.00 0.00 29 1019.5
20260503173026 11 65 6.4 16.1 0.00 0.00 0.00 25 1019.6
20260503172525 12 353 6.4 14.5 0.00 0.00 0.00 25 1019.8
20260503172025 12 349 3.2 17.7 0.00 0.00 0.00 26 1019.7
20260503171523 11 224 6.4 17.7 0.00 0.00 0.00 27 1019.9
20260503171022 11 264 3.2 12.9 0.00 0.00 0.00 27 1020.0
20260503170523 11 239 4.8 20.9 0.00 0.00 0.00 29 1020.0
20260503151005 8 323 4.8 14.5 0.00 0.00 0.00 35 1020.7
20260503150503 7 300 4.8 19.3 0.00 0.00 0.00 36 1020.8
20260503131043 5 152 8.0 19.3 0.00 0.00 0.00 54 1020.1
20260503130541 4 289 4.8 16.1 0.00 0.00 0.00 56 1020.2
20260503110523 2 293 3.2 9.7 0.00 0.00 0.00 68 1018.7
20260503090510 2 13 4.8 12.9 0.00 0.00 0.00 76 1017.5
20260503081505 2 330 3.2 11.3 0.00 0.00 0.00 75 1017.2
20260503081100 2 318 3.2 11.3 0.00 0.00 0.00 75 1017.1
20260503080602 2 315 3.2 11.3 0.00 0.00 0.00 76 1017.0
20260503072554 2 326 0.0 3.2 0.00 0.00 0.00 78 1016.8
20260503072054 2 324 1.6 4.8 0.00 0.00 0.00 79 1016.8
20260503071553 1 353 1.6 4.8 0.00 0.00 0.00 79 1016.7
20260503071052 1 319 0.0 4.8 0.00 0.00 0.00 79 1016.6
20260503070555 1 338 0.0 3.2 0.00 0.00 0.00 80 1016.4
20260503060110 1 229 0.0 1.6 0.00 0.00 0.00 82 1016.5
20260503055045 1 157 0.0 1.6 0.00 0.00 0.00 82 1016.3
20260503054559 1 192 0.0 1.6 0.00 0.00 0.00 81 1016.3
20260503054045 1 220 0.0 3.2 0.00 0.00 0.00 80 1016.2
20260503053544 1 328 0.0 3.2 0.00 0.00 0.00 80 1016.2
20260503053045 1 210 0.0 1.6 0.00 0.00 0.00 81 1016.2
20260503052546 1 210 0.0 1.6 0.00 0.00 0.00 81 1016.1
20260503052045 1 210 0.0 1.6 0.00 0.00 0.00 81 1016.2
20260503051541 1 352 0.0 1.6 0.00 0.00 0.00 79 1016.1
20260503051042 2 352 0.0 1.6 0.00 0.00 0.00 78 1016.2
20260503050540 2 352 0.0 3.2 0.00 0.00 0.00 77 1016.1
20260503050039 2 353 0.0 3.2 0.00 0.00 0.00 78 1016.1
20260503045538 2 202 0.0 0.0 0.00 0.00 0.00 76 1016.0
20260503045037 2 202 0.0 0.0 0.00 0.00 0.00 75 1016.0
20260503044536 2 202 0.0 0.0 0.00 0.00 0.00 75 1016.0
20260503044036 2 202 0.0 0.0 0.00 0.00 0.00 75 1015.9
20260503043536 2 202 0.0 1.6 0.00 0.00 0.00 74 1015.9
20260503043036 2 202 0.0 1.6 0.00 0.00 0.00 73 1015.9
20260503042534 2 233 0.0 1.6 0.00 0.00 0.00 72 1016.0
20260503042031 3 233 0.0 1.6 0.00 0.00 0.00 71 1016.0
20260503041530 3 233 0.0 1.6 0.00 0.00 0.00 70 1015.9
20260503041033 3 233 0.0 1.6 0.00 0.00 0.00 69 1016.0
20260503040529 3 233 0.0 3.2 0.00 0.00 0.00 69 1015.8
20260503040034 3 254 0.0 3.2 0.00 0.00 0.00 68 1015.8
20260503035525 3 12 0.0 1.6 0.00 0.00 0.00 67 1015.8
20260503035024 4 12 0.0 1.6 0.00 0.00 0.00 66 1015.8
20260503034523 4 12 0.0 3.2 0.00 0.00 0.00 65 1015.7
20260503034022 4 338 0.0 4.8 0.00 0.00 0.00 65 1015.7
20260503033522 4 336 0.0 6.4 0.00 0.00 0.00 65 1015.6
20260503033028 4 8 1.6 9.7 0.00 0.00 0.00 65 1015.7
20260503032522 4 335 4.8 9.7 0.00 0.00 0.00 65 1015.6
20260503032021 4 297 1.6 11.3 0.00 0.00 0.00 65 1015.5
20260503031520 5 337 3.2 11.3 0.00 0.00 0.00 64 1015.5
20260503031019 5 1 1.6 6.4 0.00 0.00 0.00 63 1015.4
20260503030517 5 326 1.6 6.4 0.00 0.00 0.00 63 1015.4
20260503030016 5 326 1.6 11.3 0.00 0.00 0.00 62 1015.2
20260503025617 5 346 4.8 11.3 0.00 0.00 0.00 62 1015.2
20260503025016 5 315 4.8 14.5 0.00 0.00 0.00 61 1015.1
20260503024514 5 344 4.8 14.5 0.00 0.00 0.00 61 1015.0
20260503024014 5 308 6.4 14.5 0.00 0.00 0.00 61 1015.0
20260503023513 5 25 8.0 14.5 0.00 0.00 0.00 61 1014.9
20260503023012 5 27 6.4 14.5 0.00 0.00 0.00 61 1014.9
20260503022512 5 342 3.2 9.7 0.00 0.00 0.00 61 1014.9
20260503022012 5 352 3.2 12.9 0.00 0.00 0.00 61 1014.9
20260503021511 5 330 6.4 14.5 0.00 0.00 0.00 60 1015.0
20260503021011 5 328 3.2 9.7 0.00 0.00 0.00 60 1014.9
20260503020510 5 333 3.2 9.7 0.00 0.00 0.00 60 1014.9
20260503020009 5 293 1.6 12.9 0.00 0.00 0.00 59 1014.9
20260503015508 5 333 4.8 12.9 0.00 0.00 0.00 59 1014.8
20260503015006 6 356 3.2 11.3 0.00 0.00 0.00 59 1014.8
20260503014508 6 314 3.2 16.1 0.00 0.00 0.00 58 1014.7
20260503014007 6 299 6.4 16.1 0.00 0.00 0.00 58 1014.6
20260503013508 6 329 4.8 11.3 0.00 0.00 0.00 58 1014.6
20260503013104 6 338 3.2 11.3 0.00 0.00 0.00 58 1014.6
20260503012504 6 334 4.8 11.3 0.00 0.00 0.00 58 1014.5
20260503012005 6 13 4.8 12.9 0.00 0.00 0.00 58 1014.5
20260503011503 6 338 6.4 12.9 0.00 0.00 0.00 58 1014.4
20260503011002 6 331 4.8 9.7 0.00 0.00 0.00 58 1014.3
20260503010501 6 347 4.8 12.9 0.00 0.00 0.00 58 1014.3
20260503010001 6 314 4.8 14.5 0.00 0.00 0.00 58 1014.2
20260503005600 6 314 6.4 14.5 0.00 0.00 0.00 58 1014.1
20260503005100 6 341 3.2 12.9 0.00 0.00 0.00 57 1014.0
20260503004600 6 352 6.4 14.5 0.00 0.00 0.00 56 1014.1
20260503004100 6 16 4.8 24.1 0.00 0.00 0.00 56 1013.9